GW5578 Weather Reports


time (UTC)temp
C
wind
direction
speed
KPH
gust
KPH
rain 1hr
cm
rain 24hr
cm
rain mn
cm
humidity
%
barometer
mb
20260507133055 17 237 4.8 14.5 0.00 0.71 0.00 41 1012.6
20260507131559 17 319 4.8 16.1 0.00 0.71 0.00 43 1012.8
20260507130104 17 324 4.8 16.1 0.00 0.71 0.00 44 1012.8
20260507124553 17 207 4.8 17.7 0.00 0.71 0.00 44 1012.9
20260507123050 16 230 6.4 19.3 0.00 0.71 0.00 46 1013.0
20260507121605 16 205 8.0 17.7 0.00 0.71 0.00 46 1013.2
20260507120057 16 267 6.4 17.7 0.00 0.71 0.00 47 1013.3
20260507114600 16 0 6.4 17.7 0.00 0.71 0.00 44 1013.5
20260507113052 15 299 4.8 17.7 0.00 0.71 0.00 45 1013.8
20260507111552 15 275 4.8 17.7 0.00 0.71 0.00 47 1014.0
20260507110053 15 282 4.8 11.3 0.00 0.71 0.00 50 1014.2
20260507104547 15 299 1.6 11.3 0.00 0.71 0.00 51 1014.4
20260507103047 13 239 3.2 11.3 0.00 0.71 0.00 50 1014.3
20260507101600 13 313 3.2 12.9 0.00 0.71 0.00 52 1014.7
20260507100051 13 191 3.2 12.9 0.00 0.71 0.00 52 1014.7
20260507094549 12 321 3.2 12.9 0.00 0.71 0.00 56 1014.9
20260507093053 12 236 3.2 14.5 0.00 0.71 0.00 57 1015.2
20260507091552 11 261 3.2 12.9 0.00 0.71 0.00 63 1015.2
20260507090044 10 240 0.0 6.4 0.00 0.71 0.00 75 1015.2
20260507084555 10 317 3.2 11.3 0.00 0.71 0.00 78 1015.2
20260507083047 8 0 0.0 4.8 0.00 0.71 0.00 86 1015.2
20260507081550 7 0 0.0 4.8 0.00 0.71 0.00 90 1015.2
20260507080052 7 0 0.0 0.0 0.00 0.71 0.00 91 1015.5
20260507074605 6 0 0.0 0.0 0.00 0.71 0.00 92 1015.5
20260507073049 6 0 0.0 0.0 0.00 0.71 0.00 92 1015.6
20260507071546 6 0 0.0 4.8 0.00 0.71 0.00 92 1015.5
20260507070055 6 0 0.0 3.2 0.00 0.71 0.00 92 1015.4
20260507064550 6 40 0.0 6.4 0.00 0.71 0.00 92 1015.4
20260507063047 6 0 0.0 4.8 0.00 0.71 0.00 92 1015.5
20260507061548 6 0 0.0 0.0 0.00 0.71 0.00 92 1015.5
20260507060048 6 0 0.0 0.0 0.00 0.71 0.00 92 1015.6
20260507054621 6 0 0.0 0.0 0.00 0.71 0.00 92 1015.5
20260507053051 6 0 0.0 3.2 0.00 0.71 0.00 92 1015.5
20260507051553 6 94 0.0 3.2 0.00 0.71 0.00 92 1015.4
20260507050046 6 0 0.0 1.6 0.00 0.71 0.00 92 1015.3
20260507044552 6 0 0.0 1.6 0.00 0.71 0.00 92 1015.2
20260507043053 6 0 0.0 0.0 0.00 0.71 0.00 92 1015.2
20260507041600 6 0 0.0 0.0 0.00 0.71 0.00 92 1015.2
20260507040047 7 0 0.0 0.0 0.00 0.71 0.00 92 1015.0
20260507034556 7 0 0.0 1.6 0.00 0.71 0.00 92 1015.0
20260507033100 7 0 0.0 1.6 0.00 0.71 0.00 92 1015.1
20260507031601 7 0 0.0 1.6 0.00 0.71 0.00 92 1015.1
20260507030054 7 0 0.0 0.0 0.00 0.71 0.00 92 1015.2
20260507024552 6 0 0.0 1.6 0.00 0.71 0.00 91 1015.2
20260507023101 6 0 0.0 1.6 0.00 0.71 0.00 91 1015.3
20260507021549 6 0 0.0 1.6 0.00 0.71 0.00 91 1015.2
20260507020056 6 0 0.0 0.0 0.00 0.71 0.00 91 1015.1
20260507014600 6 0 0.0 3.2 0.00 0.71 0.00 91 1015.2
20260507013051 6 0 0.0 3.2 0.00 0.69 0.00 91 1015.2
20260507011551 6 0 0.0 4.8 0.00 0.69 0.00 91 1015.1
20260507010048 6 0 0.0 4.8 0.00 0.69 0.00 91 1015.2
20260507004549 6 0 0.0 1.6 0.00 0.69 0.00 91 1015.4
20260507003050 7 0 0.0 1.6 0.00 0.69 0.00 91 1015.5
20260507001602 6 0 0.0 3.2 0.00 0.69 0.00 91 1015.5
20260507000050 7 0 0.0 3.2 0.00 0.69 0.00 90 1015.6
20260506234548 7 0 0.0 3.2 0.00 0.69 0.00 90 1015.6
20260506233107 7 0 0.0 1.6 0.00 0.69 0.00 90 1015.6
20260506231555 7 0 0.0 0.0 0.00 0.69 0.00 90 1015.5
20260506230049 7 0 0.0 4.8 0.00 0.69 0.00 90 1015.5
20260506224548 7 67 0.0 3.2 0.00 0.69 0.00 90 1015.5
20260506223048 7 0 0.0 1.6 0.00 0.69 0.00 90 1015.3
20260506221548 7 0 0.0 1.6 0.00 0.69 0.00 90 1015.2
20260506220049 7 138 0.0 3.2 0.00 0.69 0.00 90 1015.3
20260506214553 7 0 0.0 0.0 0.00 0.69 0.69 90 1015.2
20260506213110 7 0 0.0 0.0 0.00 0.69 0.69 89 1015.1
20260506211552 7 0 0.0 0.0 0.00 0.69 0.69 89 1015.0
20260506210057 7 0 0.0 0.0 0.00 0.69 0.69 89 1015.0
20260506204556 7 0 0.0 3.2 0.00 0.69 0.69 89 1014.9
20260506203052 7 55 0.0 3.2 0.00 0.69 0.69 89 1014.8
20260506201546 7 0 0.0 6.4 0.00 0.69 0.69 88 1014.8
20260506200057 7 0 0.0 4.8 0.00 0.69 0.69 88 1014.6
20260506194625 7 54 1.6 6.4 0.00 0.69 0.69 87 1014.2
20260506193104 7 0 0.0 4.8 0.00 0.69 0.69 87 1014.0
20260506191556 8 0 0.0 6.4 0.00 0.69 0.69 87 1014.1
20260506190057 8 109 0.0 6.4 0.00 0.69 0.69 87 1013.9
20260506184554 8 0 0.0 4.8 0.00 0.69 0.69 87 1013.7
20260506183052 8 152 0.0 6.4 0.00 0.69 0.69 86 1013.6
20260506181555 8 0 0.0 8.0 0.28 0.69 0.69 86 1013.6
20260506180059 8 0 3.2 8.0 0.33 0.69 0.69 86 1013.5
20260506174550 8 24 0.0 1.6 0.43 0.69 0.69 86 1013.4
20260506173056 9 0 0.0 9.7 0.43 0.66 0.66 84 1013.3
20260506171556 10 0 0.0 1.6 0.15 0.38 0.38 83 1013.1
20260506164545 11 0 0.0 4.8 0.00 0.28 0.25 78 1012.5
20260506163106 11 0 0.0 6.4 0.00 0.25 0.23 78 1012.4
20260506161549 11 0 0.0 6.4 0.00 0.25 0.23 76 1012.4
20260506160050 11 330 0.0 3.2 0.00 0.25 0.23 79 1012.3
20260506154608 10 282 0.0 3.2 0.00 0.28 0.23 81 1012.5
20260506153059 10 0 0.0 4.8 0.05 0.28 0.23 85 1012.5
20260506151552 10 0 1.6 6.4 0.08 0.28 0.23 84 1012.5
20260506150049 10 0 0.0 3.2 0.10 0.28 0.23 83 1012.2
20260506144549 9 0 0.0 4.8 0.10 0.28 0.20 79 1012.3
20260506143102 10 57 1.6 16.1 0.13 0.23 0.18 77 1012.2
20260506141550 10 76 0.0 14.5 0.08 0.18 0.13 75 1012.0
20260506140045 11 0 0.0 8.0 0.10 0.18 0.10 72 1012.0
20260506134548 11 39 3.2 14.5 0.08 0.15 0.08 65 1011.9